sat.trackr.live / text

‹ back to catalog

STARLINK-11199 [DTC]

NORAD 60404 · 2024-141G

PAYLOAD ACTIVE UNKNOWN

§ Identity

Operator
Country
US
Launch date
2024-08-10
Launch site
AFETR
Launch vehicle
Mass (kg)
RCS (m²)

Purposes: comms

External: N2YO · Heavens-Above · Gunter

§ Orbital elements

Epoch: 2026-05-25T04:29:29.703840Z

Period
91.74 min
Inclination
53.1591°
Eccentricity
0.0001001
Mean motion
15.69711389 rev/d
Perigee alt
359.0 km
Apogee alt
360.4 km
Semi-major
6,737.9 km
B*
1.4096e-5
RAAN
69.4517°
Arg perigee
88.4814°
Mean anomaly
271.6318°
Rev number
10,375

§ Raw data

STARLINK-11199 [DTC]1 60404U 24141G   26145.18714935  .00001120  00000+0  14096-4 0  99992 60404  53.1591  69.4517 0001001  88.4814 271.6318 15.69711389103751

JSON: /api/v1/satellites/60404 · /tle

For live sub-satellite position, see the globe view (requires WebGL).

§ Visibility from observer

Set your observer location to see the next 7 days of passes ≥ 10°. The values pass through the URL so the page stays shareable.

No JS? Fill the form by hand. The geolocation button needs JavaScript.